User: anonymous   Login
Location: Petruro
(41.0333°N, 14.7833°E)
Time: 17:12:38
(UTC+00:00)
Language:

CZ-2D R/B - Orbit

View from above orbital plane
View from above orbital plane
View from above satellite
View from above satellite

Ground track
Ground track

The orbit data is extracted from the following two-line orbital elements,

1 37932U 11068C   21264.84469692  .00000012  00000-0  24862-4 0  9992
2 37932  98.6935 199.6424 0036442 208.5436 213.5997 14.22082275510621
Epoch (UTC): 21 September 2021 20:16:21
Eccentricity: 0.0036442
inclination: 98.6935°
perigee height: 792 km
apogee height: 844 km
right ascension of ascending node: 199.6424°
argument of perigee: 208.5436°
revolutions per day: 14.22082275
mean anomaly at epoch: 213.5997°
orbit number at epoch: 51062

The dashed part of the orbit path shows where the satellite is in the earth's shadow,  

DLR